Overview Statistics Trail Chart Weather Telemetry Raw packets
 

This is the latest recevied weather packets stored in our database for station/object HB9KBJ-4. If no packets are shown the sender has not sent any weather packets the latest 10 day(s).

<< 73 74 75 76 77 >>
Time Temp. Humidity Pressure Rain* Wind** Luminosity Snow
1787753682 27.78° C 44% - 0 mm - - -
1787753381 27.78° C 44% - 0 mm - - -
1787752481 26.67° C 45% - 0 mm - - -
1787751880 26.67° C 45% - 0 mm - - -
1787751580 26.67° C 47% - 0 mm - - -
1787751280 26.11° C 47% - 0 mm - - -
1787750379 26.11° C 46% - 0 mm - - -
1787750078 26.67° C 44% - 0 mm - - -
1787749778 26.11° C 47% - 0 mm - - -
1787749478 26.11° C 47% - 0 mm - - -
1787749178 26.11° C 48% - 0 mm - - -
1787748877 26.11° C 48% - 0 mm - - -
1787748577 26.11° C 48% - 0 mm - - -
1787748277 26.11° C 48% - 0 mm - - -
1787747976 26.11° C 48% - 0 mm - - -
1787747676 26.67° C 48% - 0 mm - - -
1787747376 26.11° C 48% - 0 mm - - -
1787747076 26.11° C 49% - 0 mm - - -
1787746775 25.56° C 49% - 0 mm - - -
1787746475 25.56° C 48% - 0 mm - - -
1787745274 25.56° C 50% - 0 mm - - -
1787744675 25° C 52% - 0 mm - - -
1787744373 24.44° C 52% - 0 mm - - -
1787744073 24.44° C 52% - 0 mm - - -
1787743772 23.89° C 55% - 0 mm - - -

* Rain since midnight (hover to see other rain measurements)
** Current wind speed in m/s (hover to see current wind gust speed)